User: anonymous   Login
Location: Unspecified
(0.0000°N, 0.0000°E)
Time: 07:36:05
(UTC+00:00)
Language:

EDUSAT - Orbit

View from above orbital plane
View from above orbital plane
View from above satellite
View from above satellite

Ground track
Ground track

The orbit data is extracted from the following two-line orbital elements,

1 37788U 11044A   17289.94071015  .00000174  00000-0  36860-4 0  9996
2 37788  98.2634  50.4427 0039315  62.8793  57.7481 14.70745231330782
Epoch (UTC): 16 October 2017 22:34:37
Eccentricity: 0.0039315
inclination: 98.2634°
perigee height: 631 km
apogee height: 686 km
right ascension of ascending node: 50.4427°
argument of perigee: 62.8793°
revolutions per day: 14.70745231
mean anomaly at epoch: 57.7481°
orbit number at epoch: 33078

The dashed part of the orbit path shows where the satellite is in the earth's shadow,  

DLR